Flag for Canada Weather past 2 weeks in Strathcona County, Alberta, Canada

Now
79 °F

Sunny.


Feels Like: 78 °F
Forecast: 57 / 71 °F
Wind: 9 mph from Southwest

Location: Edmonton Municipal

Current Time: Jul 24, 2014 at 5:22:58 PM

Latest Report: Jul 24, 2014 at 5:00 PM


Visibility: 9 mi

Pressure: 29.49 "Hg

Humidity: 28%

Dew point: 43 °F

Location of Strathcona CountyLocation

Historic Weather in Strathcona County — Graph

°F

Strathcona County temperature yesterday

Maximum temperature yesterday: 77 °F (at 4:00 PM)
Minimum temperature yesterday: 63 °F (at 5:00 AM)
Average temperature yesterday: 71 °F

Past Weeks' High & Low Weather Summary

 TemperatureHumidityPressure
High84 °F (Jul 15, 3:00 PM)88% (Jul 24, 2:00 AM)30.27 "Hg (Jul 24, 2:00 AM)
Low50 °F (Jul 21, 5:00 AM)32% (Jul 24, 4:00 PM)29.51 "Hg (Jul 24, 3:00 PM)
Average66 °F60%29.91 "Hg
* Reported Jul 9 4:00 PM — Jul 24 4:00 PM, Strathcona County, Weather by CustomWeather, © 2014

Note: Actual official high and low records may vary slightly from our data, if they occured in-between our weather recording intervals... More about our weather records

Advertising

Strathcona County weather history for previous 24 hours

 ConditionsComfort  
Time TempWeatherWind HumidityBarometerVisibility
4:00 PM
Jul 24
79 °FScattered clouds.17 mph32%29.51 "Hg9 mi
3:00 PM77 °FPassing clouds.9 mph39%29.51 "Hg9 mi
2:00 PM79 °FSunny.7 mph42%29.52 "Hg9 mi
1:00 PM79 °FSunny.8 mph42%29.53 "Hg9 mi
12:00 PM77 °FSunny.12 mph44%29.54 "Hg9 mi
11:00 AM75 °FSunny.12 mph50%29.57 "Hg9 mi
10:00 AM73 °FSunny.13 mph57%29.59 "Hg9 mi
9:00 AM68 °FSunny.6 mph73%29.61 "Hg9 mi
8:00 AM66 °FSunny.5 mph78%29.63 "Hg9 mi
7:00 AM63 °FPassing clouds.9 mph88%29.66 "Hg9 mi
6:00 AM63 °FClear.6 mph88%29.67 "Hg9 mi
5:00 AM63 °FClear.9 mph88%29.67 "Hg9 mi
4:00 AM63 °FClear.3 mph88%29.68 "Hg9 mi
3:00 AM66 °FClear.8 mph83%29.72 "Hg9 mi
2:00 AM64 °FClear.8 mph88%29.75 "Hg9 mi
1:00 AM66 °FClear.9 mph78%29.78 "Hg9 mi
12:00 AM68 °FClear.9 mph73%29.79 "Hg9 mi
11:00 PM
Jul 23
70 °FClear.9 mph69%29.81 "Hg9 mi
10:00 PM73 °FSunny.10 mph50%29.81 "Hg9 mi
9:00 PM75 °FSunny.9 mph50%29.81 "Hg9 mi
8:00 PM75 °FPassing clouds.8 mph54%29.83 "Hg9 mi
7:54 PM75 °FPassing clouds.9 mph54%29.85 "Hg9 mi
7:00 PM77 °FPartly sunny.14 mph54%29.85 "Hg9 mi
6:00 PM77 °FPassing clouds.8 mph54%29.88 "Hg9 mi
5:00 PM77 °FPartly sunny.10 mph54%29.90 "Hg9 mi
Weather by CustomWeather, © 2014

See weather overviewHow to use our weather pages